Content
SEND FEEDBACK

Daily
Averages
Monthly
Summary
United States of America

MARQUAM HILL, OREGON


Home > North America > United States > Oregon
Elevation: 1 meter     Latitude: 45 36N     Longitude: 122 36W

WEATHER
 
SELECT A DAY
Number of Records: 191,544;   Date Range: 1/1/95 - 7/7/14
 
SHARE

PRINT THIS DATA

[ ← Previous Day ]
WEATHER ALMANAC - 31 JANUARY, 2013
[ Next Day → ]
[ °F ]   °C
Weather ElementAverageHighLow
Temperature7.9 °C11.1 °C (3:53 pm)6 °C (6:17 am)
Dewpoint6.8 °C8 °C (11:09 am)5.6 °C (6:53 am)
Humidity92.8 %100 % (3:14 am)74 % (3:53 pm)
Barometer1029.8 hPa1031.5 hPa (1:18 am)1027.8 hPa (5:53 pm)
Wind Speed5 km/h13 km/h (7:34 pm)
Weather ElementAverage
Visibility8.7 km
Wind DirectionENE (58.7 °)

Weather ElementTotal
Precipitation---
Heating Degree Days9.8 (Base 18.3)
Averaged from 45 records on 31 January, 2013
WEATHER CONDITIONS BREAKOUT
WIND DIRECTION BREAKOUT
WEATHER BY HOUR - 31 JANUARY, 2013
[ °F ]   °C
Local TimeTemperatureDewpointHumidityBarometerVisibilityWind DirectionWind SpeedGust SpeedPrecipitationEventsConditions
1:18 AM8 °C7 °C93 %1031.5 hPa16.1 kmCalmOvercast
1:53 AM8.3 °C7.2 °C93 %1031.5 hPa16.1 kmCalmOvercast
2:53 AM7.2 °C6.7 °C97 %1031.2 hPa11.3 kmCalmOvercast
3:14 AM7 °C7 °C100 %1031.2 hPa2.4 kmCalmMostly Cloudy
3:16 AM7 °C7 °C100 %1031.2 hPa6.4 kmCalmMostly Cloudy
3:53 AM6.7 °C6.7 °C100 %1031.2 hPa11.3 kmCalmMostly Cloudy
4:09 AM7 °C6 °C93 %1031.2 hPa8 kmCalmMostly Cloudy
4:27 AM7 °C6 °C93 %1030.8 hPa8 kmCalmOvercast
4:37 AM7 °C7 °C100 %1030.8 hPa1.6 kmSouth (180°)5.6 km/hOvercast
4:53 AM6.7 °C6.1 °C96 %1030.8 hPa1.3 kmCalmOvercast
5:18 AM7 °C7 °C100 %1030.5 hPa0.8 kmCalmFogFog
5:22 AM7 °C7 °C100 %1030.5 hPa0.3 kmCalmFogFog
5:53 AM6.7 °C6.1 °C96 %1030.5 hPa0.3 kmWest (280°)5.6 km/hFogFog
6:17 AM6 °C6 °C100 %1030.5 hPa0.3 kmCalmFogFog
6:53 AM6.1 °C5.6 °C97 %1030.5 hPa0.3 kmNorth (10°)5.6 km/hFogFog
7:50 AM6 °C6 °C100 %1030.5 hPa0.3 kmENE (60°)5.6 km/hFogFog
7:53 AM6.1 °C5.6 °C97 %1030.5 hPa0.3 kmENE (60°)5.6 km/hFogFog
7:57 AM6 °C6 °C100 %1030.5 hPa0.3 kmENE (70°)7.4 km/hFogFog
8:03 AM6 °C6 °C100 %1030.5 hPa0.3 kmENE (60°)5.6 km/hFogFog
8:42 AM7 °C6 °C93 %1030.8 hPa0.3 kmEast (90°)11.1 km/hFogFog
8:53 AM6.7 °C6.1 °C96 %1030.8 hPa0.3 kmEast (80°)9.3 km/hFogFog
9:07 AM7 °C7 °C100 %1030.8 hPa1.6 kmEast (80°)9.3 km/hOvercast
9:38 AM8 °C7 °C93 %1030.8 hPa2.4 kmESE (110°)7.4 km/hOvercast
9:53 AM7.8 °C7.2 °C96 %1030.8 hPa2.4 kmEast (90°)5.6 km/hOvercast
10:14 AM8 °C7 °C93 %1030.8 hPa3.2 kmEast (80°)5.6 km/hOvercast
10:53 AM8.3 °C7.2 °C93 %1030.5 hPa3.2 kmEast (90°)9.3 km/hOvercast
11:09 AM8 °C8 °C100 %1030.5 hPa9.7 kmSouth (180°)9.3 km/hOvercast
11:53 AM9.4 °C7.2 °C86 %1029.8 hPa16.1 kmVariable5.6 km/hOvercast
12:53 PM9.4 °C7.2 °C86 %1029.5 hPa16.1 kmENE (70°)7.4 km/h0 mmRainLight Rain
1:05 PM10 °C7 °C82 %1029.5 hPa16.1 kmCalm0 mmOvercast
1:53 PM10.6 °C7.2 °C80 %1029.1 hPa16.1 kmCalm0 mmOvercast
2:53 PM10.6 °C7.2 °C80 %1028.8 hPa16.1 kmNE (50°)7.4 km/hMostly Cloudy
3:53 PM11.1 °C6.7 °C74 %1028.4 hPa16.1 kmCalmOvercast
4:53 PM10.6 °C7.2 °C80 %1028.1 hPa16.1 kmEast (80°)5.6 km/hOvercast
5:53 PM10 °C6.7 °C80 %1027.8 hPa16.1 kmEast (100°)9.3 km/hOvercast
6:09 PM9 °C7 °C87 %1027.8 hPa16.1 kmESE (110°)11.1 km/hOvercast
6:53 PM8.3 °C6.7 °C90 %1027.8 hPa16.1 kmEast (90°)11.1 km/hOvercast
7:34 PM9 °C7 °C87 %1027.8 hPa14.5 kmEast (90°)13 km/h0 mmOvercast
7:53 PM8.9 °C7.2 °C89 %1027.8 hPa16.1 kmESE (110°)7.4 km/h0 mmOvercast
8:53 PM8.9 °C7.8 °C93 %1027.8 hPa16.1 kmEast (90°)9.3 km/hOvercast
9:35 PM9 °C8 °C93 %1028.1 hPa12.9 kmESE (110°)11.1 km/hOvercast
9:53 PM8.9 °C7.8 °C93 %1027.8 hPa16.1 kmESE (120°)9.3 km/hOvercast
10:02 PM9 °C8 °C93 %1027.8 hPa16.1 kmCalmOvercast
10:53 PM7.8 °C6.7 °C93 %1028.1 hPa16.1 kmEast (100°)7.4 km/hMostly Cloudy
11:53 PM7.8 °C6.7 °C93 %1028.4 hPa16.1 kmCalmOvercast
Hourly data recorded from KPDX, located 0 kilometers away from Marquam Hill, Oregon







STORIES FROM OUR PARTNERS